Regional Weather Roundup
Issued by NWS

Home | Current Version | Previous Version | Text Only | Print | Product List | Glossary Off
Versions: 1 2 3 4 5 6 7 8 9 10 11 12 13 14 15 16 17 18 19 20 21 22 23 24 25 26 27

000
ASUS45 KSLC 231610
RWRUT

UTAH REGIONAL WEATHER ROUNDUP
NATIONAL WEATHER SERVICE SALT LAKE CITY UT
900 AM MST THU FEB 23 2017

UTZ001>011-023>025-231700-

NORTHERN UTAH

CITY           SKY/WX    TMP DP  RH WIND       PRES   REMARKS
BRIGHAM CITY     N/A     32  24  73 W3        29.72R
DUGWAY         SNOW      27  26  96 NW12      29.78R VSB 1/2 WCI  17
HILL AFB       LGT SNOW  28  24  87 SW17      29.71R WCI  15
LOGAN          FLURRIES  31  25  78 E5        29.70R WCI  26
OGDEN          CLOUDY    29  25  85 W15G24    29.72R WCI  18
SALT LAKE CITY LGT SNOW  29  26  89 W8        29.75R FOG     WCI  21
TOOELE VALLEY  CLOUDY    28  27  93 S5        29.78R WCI  23
WENDOVER       CLOUDY    32  12  43 W9        29.78R WCI  24
HEBER CITY     CLOUDY    25  16  68 CALM      29.67R
WEST JORDAN    CLOUDY    30  30 100 CALM      29.75R

$$

UTZ011>015-024>027-231700-

CENTRAL/NORTHEAST UTAH

CITY           SKY/WX    TMP DP  RH WIND       PRES   REMARKS
PROVO AIRPORT  FLURRIES  28  23  80 W18       29.76R WCI  16
MOAB/CANYONLAN SUNNY     36  16  44 W17       29.69R WCI  26
DELTA          CLOUDY    25  21  86 SE13      29.80R WCI  13
PRICE          MOSUNNY   27  13  55 VRB3      29.65R
RICHFIELD      MOSUNNY   25  12  58 CALM      29.80
ROOSEVELT      CLOUDY    28  19  69 W14       29.62R WCI  17
VERNAL         LGT SNOW  24  21  88 E8        29.60R FOG     WCI  15

$$

UTZ013>016-019>022-027-231700-

SOUTHERN UTAH

CITY           SKY/WX    TMP DP  RH WIND       PRES   REMARKS
BRYCE CANYON   SUNNY     19   3  49 W13G21    29.73R WCI   6
CEDAR CITY     SUNNY     25  12  58 S7        29.82R WCI  17
MILFORD        PTSUNNY   16   9  74 SW10      29.81R WCI   4
ST GEORGE      PTSUNNY   40  20  44 CALM      29.92R
HANKSVILLE     SUNNY     36  10  35 W13G22    29.76R WCI  27
KANAB          MOSUNNY   36  18  48 SW8       29.88  WCI  29
BLANDING       SUNNY     33  11  40 SW17      29.78S WCI  22

$$

REGIONAL REPORTS     COLORADO/ARIZONA

CITY           SKY/WX    TMP DP  RH WIND       PRES   REMARKS
CRAIG, CO      LGT SNOW  26  18  71 W21G26    29.56R WCI  12
GRAND JUNCTION PTSUNNY   35  17  47 W20G26    29.65R WCI  24
RIFLE, CO      CLOUDY    30  23  75 W17       29.61R WCI  18
MONTROSE, CO   MOSUNNY   32  16  51 SW16G23   29.65R WCI  21
CORTEZ, CO     MOSUNNY   32  18  56 W18G24    29.72R WCI  20
COLORADO CITY    N/A     36  19  51 W13G21    29.88R WCI  27
PAGE, AZ       SUNNY     39  11  31 W13G20    29.80R WCI  31
GRAND CANYON   MOSUNNY   25  22  88 SW10      29.83S WCI  15
KINGMAN, AZ    SUNNY     42  13  30 SW6       29.93R
FLAGSTAFF, AZ  MOSUNNY   27  16  63 VRB7G17   29.82R WCI  19

$$

REGIONAL REPORTS    NEVADA/IDAHO/WYOMING

CITY           SKY/WX    TMP DP  RH WIND       PRES   REMARKS
LAS VEGAS, NV  SUNNY     47   9  21 N15       29.94R
ELY, NY        CLOUDY    22  15  75 VRB6      29.83R WCI  14
ELKO, NV       CLOUDY    25  19  78 NE3       29.88R
POCATELLO, ID  LGT SNOW  27  24  89 SW16      29.69R FOG     WCI  15
BURLEY, ID     LGT SNOW  27  23  85 W15G24    29.73R VSB 3/4 WCI  15
FORT BRIDGER,  LGT SNOW  20  20 100 W16       29.61R WCI   6
EVANSTON, WY   CLOUDY    17  13  84 SW9       29.60R WCI   6
ROCK SPRINGS,  SNOW      22  18  85 N16G28    29.53R VSB 1/2 WCI   8

$$




USA.gov is the U.S. government's official web portal to all federal, state and local government web resources and services.